[[{"header":{"parameterUnit":"m.s-1","parameterCategory":2,"la1":30.2991,"la2":30.254,"lo1":-89.0895,"lo2":-89.0444,"dy":0.0017,"dx":0.0017,"nx":28,"ny":28,"refTime":"2024-12-01T03:00:00:Z","depth":"0","parameterNumber":2,"parameterNumberName":"U-component_of_CURRENTS"},"data":[0,0,0,0,0,0,0,0,0,0,0,0,0,0,0,0,0,0,0,0,0,0,0,0,0,0,0,0,0,0,0,0,0,0,0,0,0,0,0,0,0,0,0,0,0,0,0,0,0,0,0,0,0,0,0,0,0,0,0.2481,0.2481,0,0.2425,0.2424,0.2423,0.2371,0.2371,0.237,0.237,0.2323,0.2322,0.2321,0,0,0,0,0,0,0,0,0,0,0,0,0,0.2576,0.2574,0.2481,0.2481,0.248,0.2425,0.2424,0.2423,0.2371,0.2371,0.237,0.237,0.2323,0.2322,0.2321,0,0,0,0,0,0,0,0,0,0,0,0,0,0.2527,0.2573,0.2481,0.2449,0.2445,0.2425,0.2424,0.2423,0.2371,0.2371,0.237,0.2369,0.2324,0.2322,0.2321,0.2329,0,0,0.2318,0.2317,0,0,0,0,0,0,0,0,0.253,0.2523,0.2454,0.2451,0.2447,0.2406,0.244,0.2392,0.2372,0.2398,0.237,0.2369,0.2353,0.2349,0.2338,0.2327,0.2325,0.2318,0.2317,0.2316,0.2316,0,0,0,0,0,0,0,0.2533,0.2526,0.2457,0.2454,0.2449,0.2448,0.244,0.2431,0.2379,0.2396,0.2392,0.2388,0.2351,0.2339,0.2337,0.2324,0.2318,0.2317,0.2316,0.2315,0.2333,0.2334,0,0,0,0,0,0,0.2542,0.2529,0.2459,0.2456,0.2489,0.2447,0.2438,0.2418,0.2379,0.2373,0.2389,0.2386,0.2342,0.2338,0.2335,0.2352,0.2316,0.2315,0.2315,0.2332,0.2333,0.2334,0,0,0,0,0,0,0.2544,0.2536,0.2461,0.2493,0.2484,0.2446,0.2425,0.2418,0.2407,0.2374,0.2368,0.2386,0.2341,0.2337,0.2332,0.2349,0.2315,0.2314,0.233,0.2332,0.2334,0.2379,0,0,0,0,0,0,0.2547,0.2536,0.253,0.2493,0.2482,0.2449,0.2426,0.2417,0.2407,0.2402,0.237,0.2364,0.234,0.2334,0.2331,0.2347,0.2313,0.2329,0.2331,0.2333,0.2376,0.2382,0.2387,0,0,0,0,0,0.255,0.2539,0.2529,0.2522,0.2472,0.2449,0.2443,0.2414,0.2407,0.2402,0.2387,0.2365,0.2346,0.2334,0.233,0.2346,0.2328,0.233,0.2333,0.2374,0.2381,0.2387,0,0,0,0,0,0,0.2578,0.2532,0.2521,0.2497,0.2477,0.2441,0.2436,0.2422,0.2405,0.2405,0.2376,0.2369,0.2373,0.2358,0.2346,0.236,0.2336,0.2338,0.2368,0.2375,0.238,0.2383,0.2312,0,0,0,0,0,0.2583,0.256,0.2526,0.251,0.2502,0.2474,0.2464,0.2446,0.2426,0.2417,0.2395,0.2383,0.2382,0.2376,0.2366,0.2373,0.2376,0.2383,0.2389,0.2394,0.2395,0.2434,0.2443,0.2343,0.2343,0.2343,0,0,0.2589,0.2564,0.255,0.2515,0.2498,0.2486,0.2465,0.2452,0.2446,0.2417,0.2406,0.2401,0.2389,0.2393,0.2394,0.2381,0.2423,0.2397,0.2401,0.24,0.2437,0.2447,0.2456,0.2345,0.2344,0.2344,0,0,0.2589,0.257,0.255,0.2538,0.2516,0.2502,0.2503,0.2473,0.2463,0.2459,0.2442,0.245,0.2434,0.243,0.2429,0.2464,0.2453,0.2463,0.2491,0.2529,0.2537,0.2545,0.2557,0.2565,0.2465,0.2465,0.2465,0,0.2602,0.2566,0.2546,0.2532,0.2523,0.2513,0.2502,0.2496,0.2469,0.2476,0.2461,0.247,0.2454,0.2477,0.2482,0.2476,0.2488,0.2464,0.2536,0.2544,0.2551,0.2561,0.257,0.2468,0.2468,0.2467,0.2467,0,0.258,0.2563,0.2558,0.2532,0.2527,0.2518,0.251,0.2513,0.2512,0.251,0.2532,0.2519,0.2527,0.2528,0.251,0.2555,0.2544,0.254,0.2518,0.2564,0.2572,0.258,0.2471,0.247,0.247,0.2469,0,0,0.2568,0.2544,0.2542,0.2532,0.2526,0.2514,0.2531,0.2537,0.2558,0.2556,0.258,0.2585,0.2592,0.2592,0.2583,0.2607,0.2657,0.2593,0.2594,0.2603,0.273,0.2677,0.268,0.2672,0.2674,0.2676,0.2714,0,0.2554,0.2528,0.2524,0.2513,0.2498,0.2513,0.2528,0.2544,0.2566,0.2592,0.2612,0.263,0.2615,0.2622,0.265,0.2657,0.2682,0.2646,0.2686,0.2686,0.2633,0.2689,0.2524,0.2541,0.2721,0.2723,0.2724,0,0.2519,0.2509,0.2489,0.2495,0.2492,0.2495,0.2528,0.2545,0.2601,0.2624,0.2669,0.2681,0.2718,0.2696,0.2751,0.2732,0.2734,0.2737,0.2739,0.2678,0.2649,0.2526,0.2549,0.2446,0.2736,0.2735,0.2734,0,0.2488,0.2481,0.2463,0.2461,0.2472,0.2481,0.2501,0.2554,0.2582,0.2651,0.268,0.2737,0.2759,0.2791,0.2798,0.2782,0.2852,0.2833,0.2788,0.2784,0.2644,0.2624,0.2567,0.2876,0.2876,0.2876,0.2875,0,0.2454,0.2439,0.2447,0.2434,0.2439,0.246,0.2489,0.253,0.2595,0.2637,0.2693,0.2732,0.2786,0.2826,0.2829,0.2838,0.2885,0.2803,0.28,0.2654,0.2635,0.2539,0.2515,0.2877,0.2877,0.2876,0.2876,0,0.2403,0.2407,0.2389,0.2406,0.2415,0.2419,0.2473,0.2499,0.2572,0.263,0.265,0.2743,0.28,0.2838,0.289,0.2867,0.2783,0.2869,0.2682,0.2657,0.2502,0.2487,0.2389,0.2311,0.2824,0.2823,0.2822,0,0.2366,0.2351,0.2363,0.2359,0.2362,0.2383,0.24,0.2477,0.2512,0.2629,0.2647,0.2732,0.2769,0.2831,0.2812,0.2814,0.2742,0.2665,0.2604,0.2479,0.2461,0.2393,0.2329,0.2433,0.2429,0.2426,0.2424,0,0.2308,0.2315,0.2309,0.2303,0.2308,0.232,0.2353,0.2378,0.2474,0.2518,0.2588,0.263,0.2696,0.2636,0.2651,0.2631,0.2501,0.2599,0.2519,0.2195,0.2067,0.1994,0.2415,0.2395,0.2398,0.24,0.2401,0.2403,0.2269,0.2253,0.2249,0.2234,0.224,0.2234,0.2216,0.2262,0.2295,0.233,0.2457,0.2453,0.2452,0.2445,0.2427,0.2256,0.2311,0.2144,0.2151,0.2104,0.1978,0.2333,0.2283,0.2285,0.2287,0.2289,0.229,0,0.2203,0.2191,0.2178,0.2149,0.2114,0.2147,0.2157,0.2121,0.2107,0.2172,0.2201,0.214,0.2057,0.2047,0.1913,0.181,0.1726,0.1741,0.1588,0.1561,0.1905,0.1834,0.1623,0.1623,0.1623,0.1623,0.1623,0.1623,0.2169,0.2123,0.2108,0.2021,0.1999,0.1919,0.1899,0.1868,0.1878,0.1815,0.1763,0.1786,0.1785,0.1656,0.1492,0.1446,0.1334,0.1247,0.1299,0.1512,0.1549,0.1584,0.151,0.1235,0.1234,0.0835,0.0831,0.0829]},{"header":{"parameterUnit":"m.s-1","parameterCategory":2,"la1":30.2991,"la2":30.254,"lo1":-89.0895,"lo2":-89.0444,"dy":0.0017,"dx":0.0017,"nx":28,"ny":28,"refTime":"2024-12-01T03:00:00:Z","depth":"0","parameterNumber":3,"parameterNumberName":"V-component_of_CURRENTS"},"data":[0,0,0,0,0,0,0,0,0,0,0,0,0,0,0,0,0,0,0,0,0,0,0,0,0,0,0,0,0,0,0,0,0,0,0,0,0,0,0,0,0,0,0,0,0,0,0,0,0,0,0,0,0,0,0,0,0,0,0.004,0.004,0,0.0024,0.0024,0.0024,0.0009,0.0009,0.0009,0.0009,-0.0028,-0.0028,-0.0029,0,0,0,0,0,0,0,0,0,0,0,0,0,0.0014,0.0015,0.004,0.004,0.004,0.0024,0.0024,0.0023,0.0009,0.0009,0.0009,0.0009,-0.0027,-0.0028,-0.0029,0,0,0,0,0,0,0,0,0,0,0,0,0,0.0013,0.0015,0.004,0.0032,0.0031,0.0024,0.0024,0.0023,0.0009,0.0009,0.0009,0.0009,-0.0027,-0.0028,-0.003,-0.0038,0,0,-0.0034,-0.0035,0,0,0,0,0,0,0,0,0.0013,0.0014,0.0033,0.0033,0.0032,0.002,0.0002,0.0002,0.0009,0.0016,0.0009,0.0009,-0.0012,-0.0015,-0.002,-0.004,-0.0041,-0.0034,-0.0035,-0.0036,-0.0036,0,0,0,0,0,0,0,0.0013,0.0014,0.0032,0.0033,0.0032,0.0015,0.0015,0.0001,0.0,0.0015,0.0014,0.0016,-0.0013,-0.0019,-0.0021,-0.0042,-0.0034,-0.0035,-0.0036,-0.0037,-0.006,-0.006,0,0,0,0,0,0,0.0021,0.0015,0.0032,0.0032,0.0024,0.0016,0.0015,0.0022,0.0001,-0.0002,0.0016,0.0015,-0.0016,-0.0019,-0.0022,-0.0015,-0.0036,-0.0037,-0.0038,-0.006,-0.006,-0.006,0,0,0,0,0,0,0.0021,0.0023,0.0033,0.0024,0.0024,0.0017,0.0024,0.0022,0.002,0.0002,-0.0002,0.0017,-0.0016,-0.002,-0.0025,-0.0017,-0.0038,-0.0039,-0.0061,-0.006,-0.006,-0.0012,0,0,0,0,0,0,0.002,0.0023,0.0028,0.0025,0.0025,0.0037,0.0024,0.0022,0.0022,0.0021,0.0001,-0.0002,-0.0017,-0.0023,-0.0027,-0.002,-0.004,-0.0061,-0.006,-0.006,-0.0014,-0.001,-0.0007,0,0,0,0,0,0.002,0.003,0.0028,0.003,0.0033,0.0038,0.0037,0.0029,0.0022,0.0026,0.0014,-0.0001,-0.0023,-0.0024,-0.0028,-0.0021,-0.0061,-0.0061,-0.006,-0.0016,-0.0011,-0.0007,0,0,0,0,0,0,0.0016,0.0029,0.0028,0.004,0.0042,0.0036,0.0039,0.0033,0.0026,0.0023,0.0003,-0.0001,-0.0004,-0.002,-0.002,-0.0028,-0.0046,-0.0046,-0.001,-0.0006,-0.0002,0.0014,-0.0041,0,0,0,0,0,0.0019,0.0034,0.0038,0.0047,0.0051,0.0045,0.0045,0.0041,0.0035,0.0032,0.0019,0.0004,-0.0006,-0.001,-0.0025,-0.0026,-0.0041,-0.0026,-0.0022,-0.0019,-0.001,-0.0024,-0.002,-0.0058,-0.0058,-0.0058,0,0,0.0019,0.0029,0.0036,0.0048,0.0048,0.0064,0.0045,0.005,0.006,0.0029,0.0035,0.0015,-0.0005,-0.0006,-0.0009,-0.0016,-0.0018,-0.0018,-0.0015,-0.0008,-0.0023,-0.0019,-0.0015,-0.0058,-0.0058,-0.0058,0,0,0.0036,0.0038,0.0059,0.0066,0.0074,0.0074,0.0079,0.0077,0.0073,0.0075,0.0055,0.0045,0.0027,0.002,0.0012,0.0027,0.0,0.0017,0.0051,0.0038,0.0041,0.0044,0.0026,0.0027,0.0021,0.0021,0.0021,0,0.0036,0.0065,0.0064,0.0086,0.0097,0.0084,0.0108,0.0104,0.0098,0.0103,0.0083,0.0065,0.0043,0.0051,0.0052,0.0037,0.0022,0.0038,0.0043,0.0046,0.0048,0.0029,0.003,0.0024,0.0023,0.0023,0.0023,0,0.0074,0.0093,0.0106,0.0136,0.0144,0.016,0.0161,0.0163,0.0153,0.0151,0.015,0.0118,0.011,0.0097,0.0077,0.0083,0.0065,0.0048,0.0036,0.0055,0.0034,0.0033,0.0027,0.0026,0.0025,0.0025,0,0,0.0088,0.0128,0.0132,0.0157,0.0173,0.0188,0.0202,0.022,0.0243,0.0216,0.0238,0.0206,0.0186,0.0176,0.0146,0.0131,0.0123,0.0098,0.0096,0.0087,0.009,0.0083,0.0082,0.0106,0.0106,0.0106,0.0069,0,0.0122,0.0177,0.0184,0.0232,0.0263,0.0256,0.0278,0.0287,0.0287,0.0301,0.0264,0.0268,0.0218,0.0212,0.0189,0.0145,0.0124,0.0134,0.0068,0.0066,0.0063,0.0082,0.0119,0.0089,0.0068,0.0068,0.0068,0,0.0165,0.0197,0.0252,0.0297,0.0309,0.0331,0.0369,0.0388,0.0397,0.0396,0.0386,0.0354,0.033,0.0278,0.0214,0.0222,0.016,0.0117,0.0115,0.0094,0.0059,0.0066,0.0089,0.0035,0.0067,0.0067,0.0067,0,0.0195,0.0247,0.0294,0.0309,0.0353,0.0371,0.0395,0.0418,0.0452,0.0458,0.0474,0.0435,0.0422,0.0342,0.0243,0.0229,0.0168,0.0137,0.0071,0.007,0.0082,0.0081,0.0052,0.0086,0.0086,0.0087,0.0087,0,0.0238,0.0276,0.0312,0.034,0.0401,0.0413,0.0479,0.0494,0.0529,0.0589,0.0527,0.0553,0.0436,0.0381,0.0277,0.0181,0.0192,0.0086,0.0065,0.0099,0.01,0.0037,-0.0018,0.0085,0.0085,0.0086,0.0086,0,0.0272,0.0293,0.0354,0.0402,0.042,0.0467,0.0539,0.0591,0.0608,0.0679,0.068,0.0648,0.0585,0.0458,0.034,0.0238,0.0098,0.0092,0.0138,0.0123,0.0012,-0.0043,-0.0116,-0.0154,0.0021,0.0021,0.0021,0,0.0297,0.0331,0.04,0.0442,0.0467,0.0534,0.0588,0.0629,0.0692,0.0748,0.0787,0.074,0.0735,0.0553,0.0374,0.0201,0.0103,0.0098,0.0074,0.0021,-0.0056,-0.0092,-0.0122,0.0104,0.0104,0.0105,0.0105,0,0.0346,0.0367,0.0416,0.05,0.0561,0.064,0.0717,0.0779,0.0841,0.0899,0.0966,0.0962,0.0804,0.0663,0.0415,0.0282,0.0066,0.0099,0.0038,0.0006,-0.0029,-0.008,0.0105,0.0108,0.0108,0.0108,0.0108,0.0107,0.0381,0.0422,0.0483,0.0564,0.0638,0.0732,0.0805,0.0897,0.1003,0.1098,0.1099,0.1117,0.0908,0.0592,0.0414,0.012,0.0089,0.0034,-0.0029,-0.0062,-0.0091,0.0099,0.0082,0.0081,0.0081,0.008,0.008,0,0.0425,0.0469,0.0545,0.0639,0.0721,0.0753,0.0882,0.096,0.1091,0.1183,0.1244,0.1152,0.0916,0.0625,0.0237,0.004,-0.0043,-0.0074,-0.0108,-0.0135,0.0041,0.0055,0.0039,0.0039,0.0039,0.0039,0.0039,0.0039,0.0449,0.052,0.0554,0.0685,0.0754,0.0863,0.0937,0.1058,0.1149,0.1247,0.1258,0.1245,0.1032,0.0437,0.0036,-0.0075,-0.0218,-0.0244,-0.0335,-0.0198,-0.0192,-0.0186,-0.0184,-0.0249,-0.025,-0.0455,-0.0457,-0.0459]}],[{"header":{"parameterUnit":"m.s-1","parameterCategory":2,"la1":30.2991,"la2":30.254,"lo1":-89.0895,"lo2":-89.0444,"dy":0.0017,"dx":0.0017,"nx":28,"ny":28,"refTime":"2024-12-01T03:00:00:Z","depth":"2","parameterNumber":2,"parameterNumberName":"U-component_of_CURRENTS"},"data":[0,0,0,0,0,0,0,0,0,0,0,0,0,0,0,0,0,0,0,0,0,0,0,0,0,0,0,0,0,0,0,0,0,0,0,0,0,0,0,0,0,0,0,0,0,0,0,0,0,0,0,0,0,0,0,0,0,0,0.216,0.216,0,0.2145,0.2145,0.2145,0.2121,0.2121,0.212,0.212,0.21,0.21,0.2099,0,0,0,0,0,0,0,0,0,0,0,0,0,0.2182,0.2181,0.216,0.216,0.216,0.2146,0.2145,0.2145,0.2121,0.2121,0.212,0.212,0.21,0.21,0.2099,0,0,0,0,0,0,0,0,0,0,0,0,0,0.2168,0.2181,0.216,0.2148,0.2147,0.2146,0.2145,0.2145,0.2121,0.2121,0.212,0.212,0.21,0.21,0.2099,0.2103,0,0,0.2098,0.2097,0,0,0,0,0,0,0,0,0.2169,0.2167,0.2149,0.2149,0.2147,0.2137,0.2146,0.2131,0.2121,0.2128,0.212,0.212,0.2113,0.2112,0.2107,0.2102,0.2102,0.2098,0.2097,0.2097,0.2097,0,0,0,0,0,0,0,0.217,0.2168,0.2152,0.215,0.2148,0.2149,0.2146,0.2143,0.2121,0.2128,0.2126,0.2129,0.2112,0.2107,0.2106,0.2101,0.2098,0.2097,0.2097,0.2097,0.2133,0.2135,0,0,0,0,0,0,0.2176,0.2169,0.2152,0.2152,0.216,0.2149,0.2146,0.2139,0.2121,0.2119,0.2129,0.2128,0.2108,0.2107,0.2105,0.2136,0.2097,0.2097,0.2096,0.2132,0.2134,0.2135,0,0,0,0,0,0,0.2176,0.2174,0.2153,0.2162,0.216,0.2149,0.2141,0.2139,0.2141,0.2123,0.212,0.2136,0.2108,0.2106,0.2114,0.2134,0.2097,0.2096,0.2131,0.2133,0.2134,0.2179,0,0,0,0,0,0,0.2177,0.2174,0.2177,0.2162,0.2159,0.2156,0.2142,0.2139,0.2144,0.2142,0.2127,0.2125,0.2107,0.2114,0.2113,0.2132,0.2096,0.2129,0.2132,0.2134,0.2176,0.2183,0.2188,0,0,0,0,0,0.2177,0.2178,0.2177,0.2175,0.2161,0.2157,0.2155,0.2145,0.2145,0.2146,0.2143,0.2125,0.2129,0.2115,0.2113,0.2133,0.2128,0.2131,0.2134,0.2174,0.2181,0.2188,0,0,0,0,0,0,0.2188,0.2175,0.2173,0.217,0.2168,0.2154,0.2158,0.2155,0.2153,0.2156,0.2137,0.2135,0.215,0.2139,0.2124,0.2152,0.2127,0.213,0.2159,0.2166,0.2171,0.2173,0.2095,0,0,0,0,0,0.2193,0.219,0.2181,0.2181,0.2182,0.2175,0.2176,0.2171,0.2166,0.2165,0.2156,0.2154,0.216,0.216,0.2158,0.2172,0.2172,0.2186,0.2191,0.2196,0.2198,0.2231,0.224,0.2144,0.2144,0.2144,0,0,0.2197,0.2192,0.219,0.2184,0.2183,0.2185,0.2174,0.2179,0.2184,0.2164,0.2171,0.2173,0.2169,0.2183,0.2189,0.2176,0.2224,0.22,0.2204,0.2203,0.2235,0.2245,0.2253,0.2146,0.2146,0.2146,0,0,0.2202,0.2202,0.22,0.2201,0.2205,0.2202,0.2208,0.2202,0.2203,0.2216,0.2207,0.2223,0.2223,0.2224,0.2226,0.2266,0.2254,0.2269,0.2297,0.233,0.2338,0.2345,0.2354,0.2362,0.2271,0.2271,0.2271,0,0.2211,0.2204,0.2201,0.2204,0.2207,0.2213,0.2216,0.2221,0.222,0.2232,0.2225,0.2252,0.2244,0.2271,0.2282,0.2278,0.2288,0.2269,0.2337,0.2344,0.2351,0.2358,0.2366,0.2273,0.2273,0.2273,0.2272,0,0.2209,0.2212,0.2215,0.2217,0.2223,0.2229,0.2237,0.2251,0.2262,0.2272,0.2305,0.2303,0.232,0.2324,0.2313,0.2357,0.2346,0.2341,0.2318,0.2363,0.2368,0.2376,0.2277,0.2276,0.2275,0.2274,0,0,0.22,0.221,0.2212,0.2214,0.2231,0.2231,0.2258,0.228,0.2306,0.2323,0.2354,0.2372,0.2384,0.2387,0.2382,0.2406,0.2454,0.2394,0.2395,0.24,0.2517,0.2455,0.2456,0.2467,0.2468,0.247,0.25,0,0.2199,0.2202,0.2211,0.2221,0.2222,0.2246,0.2268,0.2296,0.2327,0.2362,0.2387,0.2414,0.2405,0.2418,0.2445,0.2454,0.2477,0.2446,0.2475,0.2475,0.2413,0.2464,0.2239,0.2243,0.2507,0.2509,0.2509,0,0.2184,0.219,0.2195,0.2218,0.2223,0.2237,0.2281,0.2306,0.2369,0.2398,0.2446,0.2462,0.2503,0.2486,0.2538,0.2521,0.2524,0.2527,0.2528,0.2459,0.2427,0.2242,0.2246,0.2521,0.252,0.2519,0.2519,0,0.2156,0.2176,0.2179,0.2185,0.2216,0.2233,0.2261,0.2319,0.2351,0.2426,0.2459,0.2515,0.2542,0.2571,0.258,0.2568,0.2629,0.2612,0.2557,0.2552,0.2358,0.2333,0.2649,0.2649,0.2649,0.2649,0.2649,0,0.2136,0.2138,0.2168,0.2168,0.2188,0.2218,0.2259,0.2303,0.2372,0.2415,0.2474,0.2513,0.2568,0.2604,0.2607,0.2607,0.2657,0.257,0.2563,0.2366,0.2343,0.2581,0.2572,0.265,0.265,0.265,0.2649,0,0.2095,0.2115,0.212,0.2156,0.217,0.2186,0.2249,0.2279,0.2356,0.2413,0.2437,0.2527,0.2578,0.2612,0.2659,0.2631,0.2639,0.2622,0.2378,0.2342,0.2529,0.2523,0.2567,0.2565,0.2563,0.2562,0.2561,0,0.207,0.2069,0.2104,0.2109,0.2124,0.2159,0.2181,0.2263,0.2296,0.2412,0.2427,0.2509,0.2532,0.2582,0.2553,0.2545,0.2617,0.2335,0.227,0.2536,0.2525,0.2521,0.2517,0.2026,0.2021,0.2016,0.2013,0,0.2027,0.2044,0.2052,0.2063,0.2079,0.2098,0.2138,0.2161,0.2255,0.2295,0.2352,0.2383,0.2433,0.2325,0.2329,0.2299,0.232,0.2247,0.2596,0.2088,0.203,0.2019,0.2032,0.1974,0.1978,0.198,0.1983,0.1984,0.1998,0.1992,0.2004,0.2005,0.2022,0.2016,0.2001,0.2042,0.2068,0.2094,0.2203,0.2167,0.2183,0.2069,0.1998,0.1945,0.2115,0.2007,0.2019,0.2035,0.1974,0.1917,0.1827,0.183,0.1832,0.1834,0.1836,0,0.1945,0.1942,0.1942,0.1928,0.1903,0.1942,0.1947,0.1905,0.188,0.1924,0.1937,0.1765,0.1675,0.1698,0.154,0.1534,0.1501,0.1478,0.1408,0.1449,0.1484,0.1393,0.1092,0.109,0.1088,0.1086,0,0,0.1918,0.1886,0.1874,0.1804,0.1796,0.1726,0.1705,0.1658,0.1651,0.1585,0.1537,0.1629,0.1656,0.1364,0.1314,0.1174,0.1308,0.1126,0.1724,0.1683,0.1716,0.179,0.1696,0,0,0,0,0]},{"header":{"parameterUnit":"m.s-1","parameterCategory":2,"la1":30.2991,"la2":30.254,"lo1":-89.0895,"lo2":-89.0444,"dy":0.0017,"dx":0.0017,"nx":28,"ny":28,"refTime":"2024-12-01T03:00:00:Z","depth":"2","parameterNumber":3,"parameterNumberName":"V-component_of_CURRENTS"},"data":[0,0,0,0,0,0,0,0,0,0,0,0,0,0,0,0,0,0,0,0,0,0,0,0,0,0,0,0,0,0,0,0,0,0,0,0,0,0,0,0,0,0,0,0,0,0,0,0,0,0,0,0,0,0,0,0,0,0,0.0238,0.0238,0,0.0212,0.0211,0.0211,0.0194,0.0194,0.0194,0.0194,0.0166,0.0165,0.0165,0,0,0,0,0,0,0,0,0,0,0,0,0,0.0235,0.0235,0.0238,0.0238,0.0238,0.0212,0.0211,0.0211,0.0194,0.0194,0.0194,0.0194,0.0166,0.0165,0.0164,0,0,0,0,0,0,0,0,0,0,0,0,0,0.0225,0.0235,0.0238,0.0226,0.0225,0.0212,0.0211,0.0211,0.0194,0.0194,0.0194,0.0194,0.0166,0.0165,0.0164,0.016,0,0,0.0161,0.0161,0,0,0,0,0,0,0,0,0.0225,0.0225,0.0228,0.0227,0.0226,0.0207,0.02,0.0194,0.0194,0.0205,0.0194,0.0194,0.018,0.0178,0.0172,0.0158,0.0157,0.0161,0.016,0.016,0.016,0,0,0,0,0,0,0,0.0226,0.0225,0.0227,0.0228,0.0227,0.0209,0.0208,0.0198,0.0193,0.0204,0.0203,0.0201,0.0179,0.0173,0.0171,0.0157,0.0161,0.016,0.016,0.0159,0.014,0.014,0,0,0,0,0,0,0.0233,0.0226,0.0228,0.0226,0.0226,0.0209,0.0208,0.0212,0.0193,0.019,0.0201,0.02,0.0175,0.0173,0.017,0.0175,0.016,0.0159,0.0158,0.014,0.014,0.014,0,0,0,0,0,0,0.0233,0.0233,0.0229,0.0226,0.0224,0.021,0.0215,0.0212,0.0207,0.0191,0.0188,0.0199,0.0175,0.0172,0.0168,0.0174,0.0159,0.0158,0.014,0.014,0.014,0.0177,0,0,0,0,0,0,0.0233,0.0234,0.0237,0.0227,0.0225,0.0226,0.0215,0.0211,0.0206,0.0205,0.0188,0.0185,0.0174,0.0169,0.0167,0.0172,0.0157,0.014,0.014,0.014,0.0176,0.0179,0.0181,0,0,0,0,0,0.0233,0.0241,0.0237,0.0237,0.0231,0.0227,0.0224,0.0213,0.0206,0.0207,0.0197,0.0186,0.0169,0.0169,0.0166,0.0171,0.014,0.014,0.014,0.0175,0.0178,0.0181,0,0,0,0,0,0,0.0238,0.0239,0.0236,0.0242,0.0237,0.0224,0.0223,0.0215,0.0207,0.0205,0.019,0.0186,0.0183,0.0171,0.0172,0.0165,0.0151,0.0151,0.0179,0.0182,0.0184,0.0198,0.0156,0,0,0,0,0,0.0241,0.0249,0.0244,0.0248,0.0248,0.0235,0.0231,0.0224,0.0216,0.0212,0.0201,0.0189,0.0181,0.0178,0.0167,0.0166,0.0151,0.0165,0.0168,0.017,0.0178,0.0162,0.0164,0.0141,0.0141,0.0141,0,0,0.0243,0.0245,0.0249,0.025,0.0244,0.0252,0.0233,0.023,0.0235,0.0211,0.0214,0.0197,0.0182,0.0181,0.0178,0.0173,0.0167,0.017,0.0173,0.018,0.0162,0.0165,0.0167,0.0141,0.0141,0.0141,0,0,0.0255,0.0254,0.0267,0.0267,0.0263,0.0259,0.0261,0.0251,0.0246,0.0245,0.0229,0.022,0.0206,0.0199,0.0194,0.0204,0.018,0.0196,0.0223,0.0207,0.0209,0.021,0.0189,0.0188,0.0199,0.0199,0.0199,0,0.0257,0.0275,0.0268,0.028,0.0285,0.0267,0.0282,0.0275,0.0265,0.0268,0.0252,0.0236,0.0218,0.0223,0.0224,0.0211,0.0195,0.0214,0.0211,0.0212,0.0213,0.0191,0.019,0.0201,0.02,0.02,0.02,0,0.0282,0.0294,0.0301,0.0316,0.0319,0.0327,0.0322,0.0321,0.0311,0.0307,0.0305,0.0278,0.0271,0.0259,0.0244,0.0244,0.0228,0.0215,0.0206,0.0218,0.0193,0.0192,0.0203,0.0203,0.0202,0.0202,0,0,0.0294,0.0316,0.0318,0.0336,0.0341,0.0349,0.0358,0.0369,0.0386,0.036,0.0376,0.0349,0.0331,0.0323,0.0298,0.0281,0.0265,0.0253,0.0251,0.0237,0.0225,0.0214,0.021,0.0251,0.0251,0.0252,0.0204,0,0.0318,0.0354,0.0356,0.0391,0.0411,0.0403,0.0421,0.0425,0.0422,0.0431,0.0397,0.0399,0.0357,0.0353,0.0329,0.0287,0.0263,0.0279,0.0211,0.021,0.0202,0.0209,0.0228,0.0188,0.0202,0.0201,0.0201,0,0.0345,0.0368,0.0407,0.0443,0.0451,0.0467,0.0497,0.0512,0.0516,0.0513,0.0501,0.0472,0.0446,0.0403,0.0336,0.0348,0.029,0.0249,0.0246,0.0224,0.0195,0.0178,0.0183,0.0198,0.0198,0.0198,0.0199,0,0.037,0.0406,0.0441,0.0452,0.0485,0.0501,0.0521,0.0538,0.0567,0.0566,0.0578,0.0538,0.0523,0.0448,0.0355,0.0346,0.0277,0.0253,0.0186,0.0184,0.0182,0.018,0.02,0.02,0.02,0.0201,0.0201,0,0.0401,0.0429,0.0456,0.0477,0.0528,0.0537,0.0594,0.0604,0.0633,0.0681,0.0624,0.0641,0.0533,0.0476,0.038,0.0283,0.0293,0.0195,0.0174,0.0194,0.0194,0.019,0.0189,0.0199,0.0199,0.02,0.02,0,0.0424,0.044,0.0487,0.0526,0.0543,0.0581,0.0646,0.0691,0.0704,0.0759,0.0759,0.0722,0.0654,0.0535,0.042,0.0327,0.0226,0.0184,0.0212,0.0196,0.0135,0.0137,0.0108,0.0107,0.0106,0.0106,0.0105,0,0.0441,0.0467,0.0524,0.056,0.058,0.0639,0.0688,0.0725,0.0779,0.0816,0.0846,0.0792,0.0771,0.0591,0.0427,0.0261,0.0228,0.0155,0.0138,0.0144,0.0127,0.013,0.0132,0.0145,0.0144,0.0144,0.0144,0,0.0476,0.0493,0.0533,0.0606,0.066,0.0731,0.08,0.0852,0.0905,0.0944,0.0985,0.0967,0.0809,0.0655,0.0425,0.0308,0.0183,0.0148,0.0152,0.0168,0.0176,0.016,0.0162,0.0144,0.0144,0.0144,0.0144,0.0144,0.0501,0.0535,0.0587,0.0657,0.0723,0.0808,0.0873,0.0949,0.1033,0.1091,0.1082,0.1049,0.0882,0.059,0.0398,0.0185,0.0196,0.0107,0.0109,0.011,0.0126,0.0132,0.0095,0.0094,0.0094,0.0094,0.0094,0,0.0533,0.057,0.0636,0.0717,0.0792,0.0824,0.0937,0.0999,0.1096,0.1139,0.1165,0.0991,0.0826,0.0613,0.0314,0.0139,0.0123,0.0065,0.0089,0.0092,0.0093,0.0109,0.0073,0.0072,0.0071,0.0071,0,0,0.0551,0.0609,0.0639,0.0753,0.0815,0.0914,0.0979,0.1068,0.1119,0.1154,0.1132,0.1108,0.0872,0.0647,0.0419,0.0243,0.0199,0.0199,0.0237,0.0296,0.03,0.0141,0.0171,0,0,0,0,0]}],[{"header":{"parameterUnit":"m.s-1","parameterCategory":2,"la1":30.2991,"la2":30.254,"lo1":-89.0895,"lo2":-89.0444,"dy":0.0017,"dx":0.0017,"nx":28,"ny":28,"refTime":"2024-12-01T03:00:00:Z","depth":"4","parameterNumber":2,"parameterNumberName":"U-component_of_CURRENTS"},"data":[0,0,0,0,0,0,0,0,0,0,0,0,0,0,0,0,0,0,0,0,0,0,0,0,0,0,0,0,0,0,0,0,0,0,0,0,0,0,0,0,0,0,0,0,0,0,0,0,0,0,0,0,0,0,0,0,0,0,0.1339,0.1339,0,0.1382,0.1382,0.1382,0.1415,0.1415,0.1416,0.1416,0.1454,0.1455,0.1455,0,0,0,0,0,0,0,0,0,0,0,0,0,0.1282,0.1282,0.1339,0.1339,0.134,0.1382,0.1382,0.1382,0.1415,0.1415,0.1416,0.1417,0.1454,0.1455,0.1455,0,0,0,0,0,0,0,0,0,0,0,0,0,0.1311,0.1283,0.1338,0.1363,0.1366,0.1382,0.1382,0.1382,0.1415,0.1415,0.1416,0.1417,0.1454,0.1455,0.1456,0.1444,0,0,0.1458,0.1458,0,0,0,0,0,0,0,0,0.131,0.1313,0.1359,0.1362,0.1365,0.1396,0.1376,0.1404,0.1414,0.1393,0.1416,0.1417,0.1435,0.1438,0.1441,0.1446,0.1448,0.1458,0.1458,0.1459,0.1459,0,0,0,0,0,0,0,0.1307,0.1311,0.1353,0.136,0.1363,0.1371,0.1376,0.1381,0.1407,0.1395,0.1398,0.1407,0.1437,0.144,0.1442,0.1448,0.1458,0.1459,0.1459,0.1459,0.1536,0.1537,0,0,0,0,0,0,0.1307,0.1309,0.1352,0.1355,0.1341,0.1372,0.1377,0.1383,0.1408,0.1413,0.1406,0.1408,0.1438,0.1441,0.1443,0.1508,0.1459,0.1459,0.146,0.1534,0.1536,0.1538,0,0,0,0,0,0,0.1305,0.131,0.135,0.1335,0.1341,0.1372,0.1378,0.1384,0.1417,0.1416,0.1421,0.1438,0.1439,0.1442,0.1477,0.1507,0.146,0.1461,0.1532,0.1535,0.1537,0.1589,0,0,0,0,0,0,0.1303,0.1309,0.1327,0.1335,0.1342,0.1377,0.1378,0.1384,0.142,0.1424,0.1445,0.1447,0.144,0.1476,0.1478,0.1507,0.1461,0.153,0.1533,0.1536,0.1585,0.1593,0.1599,0,0,0,0,0,0.1301,0.1316,0.1327,0.1333,0.1361,0.1378,0.1383,0.1405,0.1421,0.1438,0.1458,0.1448,0.1496,0.1478,0.148,0.151,0.1529,0.1532,0.1536,0.1582,0.1591,0.1599,0,0,0,0,0,0,0.13,0.1321,0.1334,0.1355,0.1375,0.1385,0.1409,0.1422,0.1451,0.1466,0.1464,0.1468,0.1511,0.1505,0.1485,0.1542,0.1512,0.1516,0.1547,0.1555,0.1562,0.1561,0.1462,0,0,0,0,0,0.1308,0.1328,0.1345,0.1367,0.138,0.1401,0.1418,0.1433,0.1453,0.1469,0.1484,0.1503,0.1521,0.1535,0.1546,0.1575,0.1572,0.1598,0.1605,0.1611,0.1613,0.1642,0.1651,0.1549,0.1549,0.1549,0,0,0.1314,0.133,0.1343,0.1369,0.1389,0.141,0.1413,0.1447,0.1471,0.1467,0.1514,0.1529,0.1535,0.1569,0.1588,0.1572,0.1638,0.1615,0.162,0.1619,0.1646,0.1656,0.1665,0.1551,0.1551,0.1551,0,0,0.1328,0.1353,0.1373,0.1391,0.1428,0.1439,0.1456,0.1484,0.1507,0.1548,0.1554,0.159,0.1618,0.1627,0.1633,0.1686,0.1675,0.1697,0.1731,0.176,0.1768,0.1776,0.1782,0.1789,0.17,0.17,0.17,0,0.1339,0.1361,0.1382,0.1404,0.1425,0.1455,0.1478,0.1502,0.1541,0.1566,0.1575,0.1637,0.1643,0.168,0.1701,0.1702,0.171,0.1697,0.1769,0.1776,0.1782,0.1787,0.1794,0.1703,0.1703,0.1703,0.1702,0,0.1355,0.1386,0.1401,0.1439,0.1462,0.1491,0.1521,0.1559,0.1596,0.162,0.1682,0.1698,0.1735,0.1746,0.174,0.1794,0.1782,0.1773,0.1744,0.1796,0.1797,0.1804,0.1707,0.1706,0.1706,0.1705,0,0,0.1346,0.1402,0.1412,0.1435,0.1484,0.1501,0.1551,0.1597,0.1639,0.1689,0.1738,0.178,0.1804,0.1814,0.1818,0.1842,0.1895,0.1834,0.1834,0.1834,0.1951,0.1816,0.181,0.1906,0.1907,0.1909,0.1932,0,0.1357,0.1399,0.1427,0.1474,0.1495,0.154,0.158,0.163,0.168,0.1736,0.1774,0.1825,0.1825,0.1854,0.1882,0.1894,0.1917,0.1889,0.1906,0.1906,0.1776,0.1815,0.1914,0.1937,0.1939,0.194,0.1941,0,0.1358,0.1388,0.1432,0.149,0.1506,0.1543,0.1616,0.1658,0.1738,0.1782,0.1846,0.1875,0.193,0.1918,0.1974,0.1961,0.1964,0.1966,0.1967,0.1825,0.1784,0.1877,0.1953,0.1952,0.1951,0.195,0.1949,0,0.1326,0.1389,0.1426,0.1446,0.1516,0.1556,0.1602,0.168,0.1724,0.1818,0.1861,0.193,0.1971,0.2,0.2014,0.2006,0.2058,0.2043,0.1921,0.1911,0.2003,0.1994,0.2077,0.2077,0.2077,0.2077,0.2077,0,0.1307,0.1341,0.1421,0.144,0.1494,0.1549,0.1618,0.1676,0.1761,0.1809,0.1888,0.1925,0.1998,0.2032,0.2036,0.1995,0.208,0.1928,0.1911,0.2023,0.2018,0.2007,0.1998,0.2078,0.2078,0.2078,0.2077,0,0.1261,0.1315,0.1362,0.1448,0.148,0.1521,0.1621,0.166,0.1755,0.1819,0.1851,0.1943,0.1982,0.2024,0.2065,0.2004,0.1988,0.1952,0.2066,0.2055,0.1816,0.181,0.1812,0.1808,0.1804,0.1801,0.1798,0,0.1236,0.1259,0.1359,0.1389,0.1435,0.1507,0.1548,0.1651,0.1686,0.1807,0.1818,0.1898,0.1942,0.1885,0.195,0.1938,0.1915,0.1886,0.1849,0.1806,0.1791,0.1791,0.179,0.1792,0.1791,0.179,0.1789,0,0.1189,0.1241,0.1282,0.1343,0.1396,0.144,0.1507,0.1521,0.1626,0.1728,0.1732,0.1743,0.1778,0.1797,0.1799,0.1793,0.1893,0.1846,0.1853,0.1818,0.1782,0.177,0.1774,0.1776,0.1777,0.1779,0.1779,0,0.1161,0.1176,0.1238,0.1279,0.1339,0.1345,0.1393,0.1417,0.1462,0.1584,0.1586,0.1668,0.1759,0.1723,0.1731,0.1707,0.1677,0.1608,0.1627,0.1643,0.1576,0.1504,0.1398,0,0,0,0,0,0.1122,0.1125,0.1161,0.1192,0.1245,0.1275,0.1346,0.1392,0.1492,0.1447,0.1508,0.1529,0.1531,0.1581,0.1521,0.1665,0.1693,0.1588,0.1625,0.1702,0.1717,0.1654,0,0,0,0,0,0,0.1094,0.1128,0.1131,0.1108,0.1111,0.1147,0.1187,0.1254,0.1231,0.1341,0.135,0.143,0.1461,0.1548,0.1492,0.1505,0.1493,0.1645,0.164,0.1693,0.1707,0.1719,0.166,0,0,0,0,0]},{"header":{"parameterUnit":"m.s-1","parameterCategory":2,"la1":30.2991,"la2":30.254,"lo1":-89.0895,"lo2":-89.0444,"dy":0.0017,"dx":0.0017,"nx":28,"ny":28,"refTime":"2024-12-01T03:00:00:Z","depth":"4","parameterNumber":3,"parameterNumberName":"V-component_of_CURRENTS"},"data":[0,0,0,0,0,0,0,0,0,0,0,0,0,0,0,0,0,0,0,0,0,0,0,0,0,0,0,0,0,0,0,0,0,0,0,0,0,0,0,0,0,0,0,0,0,0,0,0,0,0,0,0,0,0,0,0,0,0,0.0239,0.0239,0,0.0226,0.0226,0.0226,0.0222,0.0222,0.0222,0.0223,0.0214,0.0213,0.0213,0,0,0,0,0,0,0,0,0,0,0,0,0,0.0231,0.0232,0.0239,0.0239,0.0239,0.0226,0.0226,0.0226,0.0222,0.0222,0.0222,0.0223,0.0214,0.0213,0.0213,0,0,0,0,0,0,0,0,0,0,0,0,0,0.0228,0.0232,0.0239,0.0236,0.0235,0.0226,0.0226,0.0226,0.0222,0.0222,0.0223,0.0223,0.0214,0.0213,0.0213,0.0207,0,0,0.0212,0.0211,0,0,0,0,0,0,0,0,0.0228,0.0228,0.0237,0.0236,0.0236,0.0226,0.022,0.022,0.0222,0.0227,0.0223,0.0223,0.0218,0.0217,0.0214,0.0207,0.0206,0.0211,0.0211,0.0211,0.0211,0,0,0,0,0,0,0,0.0229,0.0229,0.0234,0.0236,0.0236,0.0225,0.0225,0.022,0.0222,0.0227,0.0226,0.0225,0.0218,0.0215,0.0214,0.0206,0.0212,0.0211,0.0211,0.0211,0.0204,0.0204,0,0,0,0,0,0,0.0232,0.0229,0.0234,0.0234,0.0232,0.0225,0.0225,0.0229,0.0222,0.0221,0.0225,0.0225,0.0216,0.0215,0.0214,0.0223,0.0211,0.0211,0.021,0.0204,0.0204,0.0204,0,0,0,0,0,0,0.0232,0.0233,0.0235,0.0231,0.023,0.0225,0.023,0.0229,0.023,0.0221,0.022,0.0228,0.0216,0.0215,0.0217,0.0222,0.021,0.021,0.0204,0.0204,0.0204,0.0231,0,0,0,0,0,0,0.0232,0.0233,0.0238,0.0231,0.0231,0.0235,0.0229,0.0228,0.0229,0.0229,0.0223,0.0222,0.0216,0.0218,0.0216,0.0221,0.021,0.0204,0.0204,0.0204,0.023,0.0232,0.0234,0,0,0,0,0,0.0232,0.0239,0.0239,0.0239,0.0238,0.0235,0.0234,0.023,0.0229,0.0231,0.0229,0.0222,0.0218,0.0217,0.0216,0.0221,0.0204,0.0204,0.0204,0.0229,0.0232,0.0234,0,0,0,0,0,0,0.0236,0.0239,0.0239,0.0246,0.0243,0.0235,0.0236,0.0233,0.0232,0.0233,0.0225,0.0225,0.0227,0.022,0.0219,0.0219,0.0209,0.0209,0.0228,0.0231,0.0233,0.0242,0.0209,0,0,0,0,0,0.024,0.0248,0.0245,0.025,0.025,0.0244,0.0243,0.024,0.0237,0.0237,0.0233,0.0229,0.0226,0.0226,0.022,0.0222,0.0208,0.0223,0.0225,0.0227,0.0233,0.0216,0.0217,0.0205,0.0205,0.0205,0,0,0.0243,0.0245,0.025,0.0252,0.0249,0.0255,0.0244,0.0244,0.025,0.0236,0.0245,0.0236,0.0227,0.023,0.023,0.0226,0.0221,0.0227,0.0229,0.0234,0.0216,0.0217,0.0218,0.0206,0.0206,0.0206,0,0,0.0252,0.0255,0.0264,0.0266,0.0265,0.0263,0.0265,0.0261,0.0261,0.0265,0.0256,0.0253,0.0249,0.0244,0.0241,0.025,0.0232,0.0247,0.0266,0.025,0.0251,0.0251,0.023,0.0229,0.0249,0.0249,0.0249,0,0.0256,0.0269,0.0265,0.0274,0.028,0.027,0.0282,0.0279,0.0276,0.0281,0.0273,0.0267,0.0257,0.0262,0.0264,0.0256,0.0241,0.0259,0.0253,0.0253,0.0253,0.0231,0.0229,0.025,0.025,0.025,0.025,0,0.0271,0.0283,0.0288,0.0301,0.0305,0.0312,0.0311,0.0314,0.0312,0.0312,0.0314,0.0297,0.0297,0.0288,0.0279,0.0278,0.0265,0.0256,0.0248,0.0256,0.0232,0.023,0.0252,0.0252,0.0251,0.0251,0,0,0.0279,0.0297,0.03,0.0315,0.0322,0.0329,0.0339,0.0349,0.0364,0.0351,0.0364,0.0349,0.034,0.0335,0.0318,0.0302,0.0285,0.0283,0.0281,0.0264,0.0244,0.0228,0.0224,0.0275,0.0275,0.0275,0.0225,0,0.0294,0.0321,0.0325,0.0353,0.0369,0.0368,0.0384,0.0391,0.0393,0.0402,0.0379,0.0385,0.0358,0.0359,0.0337,0.0303,0.0281,0.0299,0.0237,0.0235,0.0222,0.0221,0.0274,0.0223,0.0223,0.0222,0.0222,0,0.031,0.0328,0.0359,0.0391,0.0399,0.0415,0.0443,0.0457,0.0463,0.0464,0.0458,0.044,0.0419,0.0391,0.0333,0.0346,0.0299,0.0264,0.0261,0.0237,0.0215,0.0214,0.0217,0.0217,0.0218,0.0218,0.0218,0,0.0322,0.0354,0.0383,0.0393,0.0424,0.0441,0.0462,0.0479,0.0503,0.0506,0.0517,0.0486,0.0476,0.0414,0.0341,0.0337,0.0269,0.0254,0.0192,0.019,0.0208,0.0208,0.0207,0.0207,0.0207,0.0207,0.0208,0,0.0339,0.0363,0.0394,0.0411,0.0456,0.0469,0.0518,0.053,0.0556,0.059,0.0555,0.0561,0.0482,0.0431,0.0355,0.0268,0.0278,0.0197,0.0178,0.0219,0.0221,0.0206,0.0206,0.0206,0.0206,0.0206,0.0207,0,0.0346,0.0365,0.0405,0.0446,0.0464,0.0498,0.0561,0.0596,0.0613,0.0651,0.0653,0.0621,0.0558,0.0466,0.0367,0.0295,0.0208,0.0171,0.0222,0.0207,0.0135,0.0137,0.0099,0.0098,0.0097,0.0097,0.0096,0,0.0352,0.0373,0.0432,0.0464,0.0486,0.0542,0.0585,0.0623,0.066,0.0687,0.0702,0.0656,0.0619,0.0467,0.0368,0.0219,0.0193,0.0139,0.0134,0.0138,0.0124,0.0128,0.0131,0.0095,0.0095,0.0094,0.0094,0,0.0365,0.0388,0.0422,0.0489,0.0539,0.06,0.0659,0.0689,0.0733,0.0746,0.0739,0.0663,0.0589,0.047,0.0353,0.0245,0.017,0.013,0.0131,0.0126,0.0133,0.012,0.0125,0.0091,0.0092,0.0092,0.0092,0,0.0376,0.0402,0.045,0.0509,0.0574,0.0635,0.067,0.071,0.0746,0.0766,0.0764,0.0684,0.0644,0.0484,0.0379,0.027,0.0236,0.0186,0.0184,0.0185,0.0221,0.0243,0.0223,0,0,0,0,0,0.0385,0.0414,0.0468,0.0531,0.0598,0.0637,0.0709,0.0739,0.0776,0.0772,0.0769,0.0698,0.0548,0.049,0.0377,0.0356,0.0213,0.0218,0.0153,0.0076,0.0079,0.0105,0,0,0,0,0,0,0.039,0.0438,0.0462,0.0537,0.0585,0.066,0.0707,0.0737,0.0735,0.0753,0.0679,0.065,0.0509,0.0609,0.0368,0.0338,0.0276,0.0155,0.0152,0.0074,0.0077,0.008,0.0107,0,0,0,0,0]}]]